RH
18 17 17 17 17 16 17 17 17 18 18 18 18 18 17 16 16 17 16 14 14 14 15 16 17 18 19 19 20 20 21 21 20 19 20 21 20 19 19 19 20 21
21 20 20 19 18 18 18 18 19 19 19 19 19 18 17 17 18 18 17 17 16 16 16 18 19 20 21 21 21 22 22 22 22 21 22 22 22 21 20 21 21 22
25 24 23 22 21 21 21 21 21 20 20 20 20 20 19 19 20 19 18 19 19 19 19 20 21 22 22 23 23 24 24 24 23 23 23 23 22 22 22 23 25 26
26 26 25 24 24 23 24 23 23 22 22 22 22 22 22 21 21 20 20 21 21 22 22 23 23 24 24 25 26 26 26 26 25 25 25 24 23 23 24 26 28 30
27 27 27 27 26 25 25 24 24 25 24 24 24 24 23 23 22 21 22 22 22 23 23 24 25 25 26 26 26 27 27 27 27 27 26 25 25 25 26 28 31 34
26 27 28 28 27 27 26 25 25 25 25 25 25 24 24 23 23 22 23 23 23 23 24 26 26 26 26 26 26 27 27 28 28 29 29 28 28 28 29 31 35 37
26 27 28 28 27 27 26 25 25 24 24 24 24 24 23 23 23 23 24 24 24 24 24 26 26 26 26 26 27 28 29 30 31 32 32 32 32 33 34 35 38 41
24 26 26 26 26 26 25 25 26 25 24 24 23 23 23 23 24 23 23 22 22 22 23 24 24 24 24 25 27 29 30 32 33 34 34 34 35 36 37 39 43 45
22 23 24 25 25 25 25 26 27 27 26 24 24 24 23 23 22 22 21 21 20 21 21 21 21 22 23 23 25 27 30 32 33 34 35 35 37 38 40 43 47 49
21 21 23 24 24 26 26 27 28 28 28 27 25 24 22 22 22 21 21 22 22 22 21 21 22 22 23 23 25 27 29 31 33 34 35 37 39 41 42 46 49 52
21 22 22 23 24 25 27 28 29 29 29 28 26 24 23 22 22 23 24 24 24 23 24 24 24 24 25 25 26 27 30 32 34 35 37 39 40 42 44 47 50 52
24 23 23 24 24 26 27 29 30 29 29 28 27 26 25 24 25 25 25 25 26 26 26 26 26 26 26 26 27 29 31 33 35 36 37 39 41 44 46 49 51 52
26 26 26 26 26 27 29 31 31 31 30 29 28 28 28 27 26 27 27 28 28 29 28 28 27 27 27 27 28 31 33 35 37 38 40 42 44 47 50 52 53 54
29 29 29 29 29 30 31 32 32 32 31 30 30 29 29 28 28 29 30 30 31 30 29 28 27 27 27 28 30 32 34 37 39 41 44 47 49 51 53 55 56 56
32 32 32 31 31 32 33 33 33 32 31 31 31 30 29 29 29 30 31 31 31 30 28 28 27 27 29 31 33 34 36 39 42 45 49 51 53 54 55 57 57 57
34 34 34 34 34 35 35 34 34 32 32 31 31 31 29 29 29 30 30 30 30 29 28 28 28 29 31 33 35 37 39 42 45 49 52 54 55 56 57 57 56 55
36 37 37 37 38 38 38 37 36 34 34 34 33 32 30 30 31 31 31 31 30 29 29 30 30 32 34 35 37 39 41 43 46 50 53 55 56 56 56 54 53 50
35 38 39 38 39 40 39 39 37 35 35 35 34 33 32 32 33 33 33 32 31 31 32 33 34 36 37 39 40 41 42 44 47 50 53 55 55 54 53 51 49 47
33 35 37 36 36 37 38 37 34 33 34 34 33 33 34 35 35 35 35 34 35 36 36 38 39 40 41 42 43 44 44 44 46 49 51 52 53 52 50 48 47 46
32 34 36 37 36 38 38 37 35 34 34 35 35 36 37 37 38 38 38 39 39 40 41 43 44 45 45 47 47 46 45 43 44 47 47 48 48 49 49 49 49 48
32 33 37 38 39 41 42 41 39 38 38 37 38 39 40 40 40 41 41 42 43 44 46 47 48 48 49 49 49 48 45 42 41 43 43 44 46 47 49 51 52 52
32 34 38 40 41 44 46 44 42 41 41 40 40 41 42 43 43 43 44 46 47 48 50 51 52 53 52 50 49 47 45 43 42 42 43 43 45 47 49 51 53 52
35 36 38 41 43 46 47 46 44 43 43 42 42 43 45 46 47 48 48 50 52 53 55 56 55 56 56 54 52 50 49 47 45 44 43 43 44 45 46 48 49 49
40 40 40 42 44 47 49 48 46 46 46 45 45 46 48 50 52 53 54 56 58 60 60 59 57 58 58 58 57 55 53 50 48 45 43 42 42 41 41 42 43 42
42 41 42 44 45 47 49 51 50 50 50 50 50 51 53 56 58 59 61 62 63 64 63 61 58 57 57 57 57 56 53 49 47 45 43 42 42 42 41 40 39 39
43 43 43 45 47 48 51 52 52 52 53 53 54 56 58 60 62 63 64 65 65 65 63 60 56 52 51 51 50 49 48 48 47 47 47 47 46 45 43 41 40 41